Flag for U.S.A. Weather past 2 weeks in Ocala, Florida, U.S.A.

Now
59 °F

Partly sunny.


Feels Like: 57 °F
Forecast: 47 / 65 °F
Wind: 10 mph from North

Location: Ocala Municipal

Current Time: Feb 26, 2015 at 6:21:32 PM

Latest Report: Feb 26, 2015 at 5:50 PM


Visibility: 10 mi

Pressure: 29.95 "Hg

Humidity: 63%

Dew point: 46 °F

Location of OcalaLocation

Historic Weather in Ocala — Graph

°F

Ocala temperature yesterday

Maximum temperature yesterday: 70 °F (at 9:35 PM)
Minimum temperature yesterday: 54 °F (at 2:35 AM)
Average temperature yesterday: 59 °F

Past Weeks' High & Low Weather Summary

 TemperatureHumidityPressure
High81 °F (Feb 22, 3:50 PM)94% (Feb 12, 8:50 AM)30.47 "Hg (Feb 12, 8:50 AM)
Low23 °F (Feb 20, 6:50 AM)14% (Feb 20, 3:50 PM)29.62 "Hg (Feb 26, 1:55 AM)
Average53 °F70%30.11 "Hg
* Reported Feb 11 4:50 PM — Feb 26 4:50 PM, Ocala, Weather by CustomWeather, © 2015

Note: Actual official high and low records may vary slightly from our data, if they occured in-between our weather recording intervals... More about our weather records

Advertising

Ocala weather history for previous 24 hours

 ConditionsComfort  
Time TempWeatherWind HumidityBarometerVisibility
4:50 PM
Thu, Feb 26
63 °FBroken clouds.9 mph56%29.92 "Hg10 mi
3:50 PM63 °FBroken clouds.9 mph59%29.90 "Hg10 mi
2:50 PM66 °FBroken clouds.9 mph56%29.88 "Hg10 mi
1:50 PM64 °FScattered clouds.7 mph56%29.88 "Hg10 mi
12:50 PM64 °FScattered clouds.6 mph56%29.88 "Hg10 mi
11:50 AM61 °FPartly sunny.12 mph63%29.89 "Hg10 mi
10:50 AM61 °FOvercast.12 mph63%29.88 "Hg10 mi
9:50 AM57 °FOvercast.12 mph77%29.86 "Hg10 mi
8:50 AM57 °FOvercast.12 mph82%29.84 "Hg10 mi
7:50 AM59 °FOvercast.12 mph82%29.80 "Hg10 mi
6:50 AM61 °FOvercast.12 mph83%29.77 "Hg10 mi
6:35 AM61 °FOvercast.9 mph83%29.77 "Hg10 mi
6:15 AM61 °FPassing clouds.9 mph83%29.75 "Hg10 mi
5:55 AM61 °FPassing clouds.13 mph83%29.73 "Hg10 mi
5:35 AM61 °FMostly cloudy.14 mph83%29.73 "Hg9 mi
5:15 AM63 °FOvercast.10 mph77%29.72 "Hg10 mi
4:55 AM63 °FOvercast.14 mph77%29.72 "Hg10 mi
4:35 AM63 °FOvercast.13 mph83%29.71 "Hg10 mi
4:15 AM63 °FOvercast.14 mph83%29.71 "Hg10 mi
3:55 AM64 °FMostly cloudy.16 mph83%29.70 "Hg10 mi
3:35 AM64 °FMostly cloudy.14 mph88%29.69 "Hg10 mi
3:15 AM64 °FThundershowers. Partly cloudy.13 mph88%29.68 "Hg10 mi
2:55 AM70 °FThunderstorms. Partly cloudy.17 mph83%29.68 "Hg3 mi
2:35 AM72 °FMostly cloudy.23 mph83%29.64 "Hg5 mi
2:15 AM73 °FMostly cloudy.22 mph74%29.64 "Hg10 mi
1:55 AM75 °FMostly cloudy.25 mph69%29.62 "Hg10 mi
1:15 AM72 °FMostly cloudy.17 mph78%29.65 "Hg10 mi
12:55 AM72 °FMostly cloudy.18 mph78%29.66 "Hg10 mi
12:35 AM72 °FMostly cloudy.18 mph73%29.66 "Hg10 mi
12:15 AM70 °FPartly cloudy.23 mph78%29.66 "Hg10 mi
11:55 PM
Wed, Feb 25
70 °FPassing clouds.23 mph78%29.66 "Hg10 mi
11:35 PM68 °FMostly cloudy.21 mph83%29.66 "Hg10 mi
10:55 PM68 °FPassing clouds.18 mph78%29.67 "Hg10 mi
10:35 PM68 °FClear.22 mph78%29.68 "Hg10 mi
9:55 PM70 °FPassing clouds.23 mph78%29.68 "Hg10 mi
9:35 PM70 °FPassing clouds.22 mph78%29.67 "Hg9 mi
9:15 PM66 °FPassing clouds.16 mph88%29.68 "Hg10 mi
8:55 PM64 °FClear.14 mph88%29.68 "Hg10 mi
8:35 PM63 °FClear.7 mph94%29.69 "Hg9 mi
8:15 PM63 °FPassing clouds.3 mph83%29.71 "Hg8 mi
7:55 PM61 °FPassing clouds.No wind88%29.71 "Hg8 mi
Weather by CustomWeather, © 2015

See weather overviewHow to use our weather pages